Погода в Асекеево

Россия / Оренбургская область     53°34′29″N   52°48′19″E
темп.,
°C
ветер,
м/с
пор.,
м/с
влажн.,
%
обл.,
%
осадки,
мм/ч
давл.,
гПа
погр.,
м
17 сентября, пт
пт1723:00+8сз4757100 0.0 10111046
02:00+7сз5864100 0.0 1011628
05:00+7сз5978100 0.0 1012543
08:00+7сз5980100 0.0 1013643
11:00+8сз5771100 0.1 1014741
14:00+9зсз575476 0.1 10141349
17:00+10сз5747100 0.1 10151705
20:00+8сз4752100 0.0 1015602
18 сентября, сб
сб1823:00+7з375898 0.0 1015272
02:00+6з3763100 0.0 1015261
05:00+4зсз367233 0.0 1016122
08:00+3зсз397693 0.0 1017250
11:00+8сз68525 0.0 10171343
14:00+8сз7855100 0.0 10181502
17:00+8сз5753100 0.1 10191548
20:00+7сз4865100 0.1 1020652
19 сентября, вс
вс1923:00+6сз377094 0.1 1021474
02:00+3зсз36845 0.0 1021105
05:00+1сз37865 0.0 1022141
08:00+1зсз27845 0.0 1024202
11:00+6сз5755100 0.0 1024966
14:00+9сз564353 0.0 10241191
17:00+10сз56385 0.0 10241299
20:00+6сз33555 0.0 102536
20 сентября, пн
пн2023:00+4сз226296 0.0 102610
02:00+3сз1163100 0.0 102610
05:00+2ссв116897 0.0 102710
08:00+2всв217396 0.0 102821
11:00+7в3354100 0.0 1028529
14:00+11в2241100 0.0 10281054
17:00+12всв223886 0.0 10271093
20:00+9всв3547100 0.0 102792
21 сентября, вт
вт2123:00+8в3548100 0.0 1028120
02:00+7в3752100 0.0 1028182
05:00+7в3653100 0.0 1028183
08:00+7в2554100 0.0 1028205
11:00+9в3348100 0.0 1028505
14:00+12вюв3340100 0.0 1027716
17:00+13вюв453730 0.0 10261067
20:00+9в334828 0.0 102649